When you browse on this site, cookies collect data to enhance your experience and personalize the content and advertising you see.
Visit our Privacy Policy to learn more. By continuing to use the site, you agree to this use of cookies and data.
  • Em Portugal
  • Lista de países
  • Para 7 dias
  • Temperatura da água
  • Mapas de satélite
  • Mapa do tempo
  • Widgets de tempo
  • user-avatar
    Iniciar Sessão

    Previsão horária em Bicz

    Hoje, 24 Maio, Sexta-feira

    Tempo Temperatura Precipitação Vento Pressão Humidade
    00:00 +9°C° 0 mm 2 m/s 752 mmHg 81%
    01:00 +8°C° 0 mm 2 m/s 752 mmHg 81%
    02:00 +8°C° 0 mm 2 m/s 752 mmHg 82%
    03:00 +8°C° 0 mm 2 m/s 752 mmHg 82%
    04:00 +7°C° 0 mm 2 m/s 752 mmHg 83%
    05:00 +9°C° 0 mm 2 m/s 752 mmHg 79%
    06:00 +10°C° 0 mm 2 m/s 752 mmHg 75%
    07:00 +13°C° 0 mm 2 m/s 752 mmHg 72%
    08:00 +14°C° 0 mm 2 m/s 752 mmHg 67%
    09:00 +16°C° 0 mm 2 m/s 752 mmHg 63%
    10:00 +17°C° 0 mm 2 m/s 752 mmHg 58%
    11:00 +18°C° 0 mm 2 m/s 751 mmHg 56%
    12:00 +19°C° 0 mm 2 m/s 751 mmHg 54%
    13:00 +19°C° 0 mm 2 m/s 751 mmHg 52%
    14:00 +20°C° 0 mm 2 m/s 751 mmHg 52%
    15:00 +20°C° 0 mm 2 m/s 750 mmHg 52%
    16:00 +20°C° 0 mm 2 m/s 750 mmHg 53%
    17:00 +19°C° 0 mm 2 m/s 750 mmHg 58%
    18:00 +18°C° 0 mm 2 m/s 750 mmHg 63%
    19:00 +16°C° 0 mm 1 m/s 749 mmHg 68%
    20:00 +15°C° 0 mm 1 m/s 749 mmHg 68%
    21:00 +14°C° 0 mm 2 m/s 749 mmHg 69%
    22:00 +13°C° 0 mm 2 m/s 749 mmHg 69%
    23:00 +13°C° 0 mm 2 m/s 749 mmHg 70%

    Amanhã, 25 Maio, Sábado

    Tempo Temperatura Precipitação Vento Pressão Humidade
    00:00 +12°C° 0 mm 2 m/s 749 mmHg 71%
    01:00 +12°C° 0 mm 2 m/s 749 mmHg 72%
    02:00 +12°C° 0 mm 2 m/s 749 mmHg 72%
    03:00 +10°C° 0 mm 3 m/s 749 mmHg 73%
    04:00 +10°C° 0 mm 3 m/s 749 mmHg 74%
    05:00 +11°C° 0 mm 3 m/s 749 mmHg 76%
    06:00 +13°C° 0 mm 3 m/s 749 mmHg 77%
    07:00 +14°C° 0 mm 3 m/s 749 mmHg 79%
    08:00 +17°C° 0 mm 4 m/s 749 mmHg 76%
    09:00 +18°C° 0 mm 4 m/s 749 mmHg 72%
    10:00 +19°C° 0 mm 5 m/s 749 mmHg 69%
    11:00 +19°C° 0 mm 5 m/s 749 mmHg 66%
    12:00 +20°C° 0 mm 5 m/s 749 mmHg 62%
    13:00 +20°C° 0 mm 5 m/s 749 mmHg 59%
    14:00 +20°C° 0 mm 5 m/s 749 mmHg 61%
    15:00 +20°C° 0 mm 5 m/s 749 mmHg 63%
    16:00 +19°C° 0 mm 5 m/s 749 mmHg 64%
    17:00 +18°C° 0 mm 4 m/s 749 mmHg 68%
    18:00 +17°C° 0 mm 3 m/s 749 mmHg 72%
    19:00 +16°C° 0 mm 2 m/s 749 mmHg 76%
    20:00 +15°C° 0 mm 2 m/s 749 mmHg 78%
    21:00 +14°C° 0 mm 2 m/s 750 mmHg 80%
    22:00 +13°C° 0 mm 2 m/s 750 mmHg 82%
    23:00 +12°C° 0 mm 2 m/s 750 mmHg 85%

    Depois de amanhã, 26 Maio, Domingo

    Tempo Temperatura Precipitação Vento Pressão Humidade
    00:00 +10°C° 0 mm 2 m/s 750 mmHg 88%
    01:00 +9°C° 0 mm 2 m/s 750 mmHg 92%
    02:00 +9°C° 0 mm 2 m/s 750 mmHg 92%
    03:00 +9°C° 0 mm 2 m/s 750 mmHg 92%
    04:00 +8°C° 0 mm 2 m/s 750 mmHg 93%
    05:00 +10°C° 0 mm 2 m/s 750 mmHg 87%
    06:00 +12°C° 0 mm 3 m/s 750 mmHg 82%
    07:00 +14°C° 0 mm 3 m/s 750 mmHg 76%
    08:00 +15°C° 0 mm 4 m/s 750 mmHg 72%
    09:00 +16°C° 0 mm 5 m/s 750 mmHg 68%
    10:00 +19°C° 0 mm 5 m/s 749 mmHg 64%
    11:00 +19°C° 0 mm 6 m/s 749 mmHg 63%
    12:00 +20°C° 0 mm 6 m/s 749 mmHg 62%
    13:00 +20°C° 0 mm 6 m/s 749 mmHg 60%
    14:00 +20°C° 0 mm 6 m/s 748 mmHg 60%
    15:00 +20°C° 0 mm 6 m/s 748 mmHg 59%
    16:00 +20°C° 0 mm 6 m/s 748 mmHg 58%
    17:00 +19°C° 0 mm 5 m/s 748 mmHg 64%
    18:00 +19°C° 0 mm 4 m/s 748 mmHg 69%
    19:00 +18°C° 0 mm 3 m/s 748 mmHg 74%
    20:00 +16°C° 0 mm 2 m/s 748 mmHg 76%
    21:00 +15°C° 0 mm 2 m/s 748 mmHg 78%
    22:00 +14°C° 0 mm 2 m/s 748 mmHg 80%
    23:00 +14°C° 0 mm 2 m/s 748 mmHg 83%

    27 Maio, Segunda-feira

    Tempo Temperatura Precipitação Vento Pressão Humidade
    00:00 +13°C° 0 mm 2 m/s 748 mmHg 85%
    01:00 +13°C° 0 mm 2 m/s 748 mmHg 88%
    02:00 +12°C° 0 mm 3 m/s 748 mmHg 88%
    03:00 +12°C° 0 mm 3 m/s 748 mmHg 89%
    04:00 +11°C° 0 mm 3 m/s 748 mmHg 90%
    05:00 +13°C° 0 mm 4 m/s 747 mmHg 85%
    06:00 +15°C° 0 mm 4 m/s 747 mmHg 80%
    07:00 +17°C° 0 mm 5 m/s 747 mmHg 75%
    08:00 +19°C° 0 mm 5 m/s 747 mmHg 70%
    09:00 +21°C° 0 mm 6 m/s 747 mmHg 66%
    10:00 +22°C° 0 mm 6 m/s 747 mmHg 61%
    11:00 +23°C° 0.1 mm 6 m/s 747 mmHg 60%
    12:00 +23°C° 0.1 mm 6 m/s 747 mmHg 60%
    13:00 +24°C° 0.1 mm 6 m/s 746 mmHg 59%
    14:00 +23°C° 0.6 mm 6 m/s 746 mmHg 63%
    15:00 +23°C° 0.6 mm 5 m/s 746 mmHg 67%
    16:00 +22°C° 0.6 mm 5 m/s 746 mmHg 70%
    17:00 +21°C° 0.6 mm 4 m/s 746 mmHg 75%
    18:00 +20°C° 0.6 mm 3 m/s 746 mmHg 81%
    19:00 +19°C° 0.6 mm 2 m/s 746 mmHg 86%
    20:00 +18°C° 0 mm 2 m/s 747 mmHg 87%
    21:00 +17°C° 0 mm 2 m/s 747 mmHg 89%
    22:00 +16°C° 0 mm 2 m/s 747 mmHg 90%
    23:00 +15°C° 0 mm 2 m/s 747 mmHg 90%

    28 Maio, Terça-feira

    Tempo Temperatura Precipitação Vento Pressão Humidade
    00:00 +14°C° 0 mm 2 m/s 747 mmHg 90%
    01:00 +12°C° 0 mm 3 m/s 747 mmHg 90%
    02:00 +12°C° 0 mm 3 m/s 747 mmHg 91%
    03:00 +12°C° 0 mm 3 m/s 747 mmHg 92%
    04:00 +12°C° 0 mm 3 m/s 746 mmHg 93%
    05:00 +12°C° 0 mm 4 m/s 746 mmHg 92%
    06:00 +13°C° 0 mm 4 m/s 746 mmHg 90%
    07:00 +14°C° 0 mm 4 m/s 746 mmHg 88%
    08:00 +14°C° 0.6 mm 4 m/s 745 mmHg 89%
    09:00 +15°C° 0.6 mm 4 m/s 745 mmHg 89%
    10:00 +15°C° 0.6 mm 4 m/s 745 mmHg 89%
    11:00 +15°C° 1.3 mm 4 m/s 744 mmHg 90%
    12:00 +15°C° 1.3 mm 5 m/s 744 mmHg 91%
    13:00 +15°C° 1.3 mm 5 m/s 744 mmHg 92%
    14:00 +15°C° 0.3 mm 5 m/s 743 mmHg 92%
    15:00 +16°C° 0.3 mm 5 m/s 743 mmHg 92%
    16:00 +16°C° 0.3 mm 5 m/s 742 mmHg 93%
    17:00 +16°C° 0.1 mm 5 m/s 742 mmHg 93%
    18:00 +16°C° 0.1 mm 5 m/s 742 mmHg 93%
    19:00 +17°C° 0.1 mm 4 m/s 742 mmHg 94%
    20:00 +15°C° 0.8 mm 4 m/s 742 mmHg 95%
    21:00 +15°C° 0.8 mm 4 m/s 742 mmHg 96%
    22:00 +15°C° 0.8 mm 4 m/s 741 mmHg 97%
    23:00 +15°C° 0.6 mm 4 m/s 741 mmHg 97%

    29 Maio, Quarta-feira

    Tempo Temperatura Precipitação Vento Pressão Humidade
    00:00 +14°C° 0.6 mm 3 m/s 741 mmHg 97%
    01:00 +14°C° 0.6 mm 3 m/s 741 mmHg 98%
    02:00 +14°C° 0.4 mm 3 m/s 741 mmHg 98%
    03:00 +15°C° 0.4 mm 2 m/s 741 mmHg 98%
    04:00 +15°C° 0.4 mm 2 m/s 741 mmHg 98%
    05:00 +15°C° 0.2 mm 2 m/s 742 mmHg 97%
    06:00 +15°C° 0.2 mm 2 m/s 742 mmHg 97%
    07:00 +15°C° 0.2 mm 1 m/s 743 mmHg 96%
    08:00 +15°C° 0.4 mm 2 m/s 743 mmHg 96%
    09:00 +14°C° 0.4 mm 3 m/s 744 mmHg 95%
    10:00 +14°C° 0.4 mm 4 m/s 744 mmHg 95%
    11:00 +14°C° 0.3 mm 3 m/s 744 mmHg 93%
    12:00 +14°C° 0.3 mm 3 m/s 745 mmHg 92%
    13:00 +15°C° 0.3 mm 2 m/s 745 mmHg 90%
    14:00 +16°C° 0.1 mm 3 m/s 746 mmHg 90%
    15:00 +16°C° 0.1 mm 3 m/s 746 mmHg 90%
    16:00 +16°C° 0.1 mm 3 m/s 747 mmHg 91%
    17:00 +16°C° 0.1 mm 3 m/s 747 mmHg 91%
    18:00 +14°C° 0.1 mm 4 m/s 748 mmHg 92%
    19:00 +14°C° 0.1 mm 4 m/s 748 mmHg 92%
    20:00 +13°C° 0 mm 4 m/s 749 mmHg 93%
    21:00 +12°C° 0 mm 4 m/s 749 mmHg 94%
    22:00 +11°C° 0 mm 3 m/s 750 mmHg 95%
    23:00 +11°C° 0 mm 4 m/s 750 mmHg 95%
    Mostrar mais